Location: Newark
(53.3503°N, 9.6158°W)
Time: 09:39:14
(UTC+00:00)

Envisat - Pass Details

Date: 26 October 2019
Orbit: 764 x 766 km, 98.1° (Epoch: 18 November)

Event Time Altitude Azimuth Distance (km) Brightness Sun altitude
Rises 05:49:06 0° 31° (NNE) 3,245 6.7 -14.9°
Maximum altitude 05:54:41 10° 81° (E) 2,311 6.8 -14.0°
Drops below altitude 10° 05:54:42 10° 81° (E) 2,311 6.9 -14.0°
Sets 06:00:13 0° 130° (SE) 3,224 7.1 -13.2°
